SOLRAD 1 (GREB)

Satellite information

Favourite Embed

Satellite Type and Status

PAYLOADIN ORBIT

Key statistics

Satellite SOLRAD 1 (GREB) at a glance.

Uptime

23915

Days in orbit

Revolutions

≈ 14.5

Per day

Orbit

LEO

Low Earth Orbit

Inclination

66.7

Latest

Satellite identification and parameters

Extended collection of information and parameters for SOLRAD 1 (GREB).

Object identification

Identified? True

Debris? False

Object name: SOLRAD 1 (GREB)

International designator: 1960-007B

Object number (NORAD): 46

Object ID (CCSDS): 46

Country: UNITED STATES OF AMERICA (US)

Current information (Y/N): Y

RCS size: MEDIUM

Orbital parameters

Period: 99.005 minutes

Inclination: 66.6893 deg

SMA: 7089.223 km

Apoapsis: 844.772 km

Periapsis: 577.405 km

RAAN: 17.7412 deg

Eccentricy: 0.01885728

Argument of periapsis: 73.2059 deg

Mean anomaly: 288.9643 deg

Mean motion: 14.54470038 rev/day

Mean motion (dot): 0.00001029 rev/day2

B* drag term: 0.00021181565 1/REarth

Two-line elements (TLE)

Creation date: Dec. 12, 2025, 10:14 a.m.

Reference frame: TEME

Reference center: EARTH

Epoch: Dec. 12, 2025, 5:59 a.m. UTC

TLE line 0: 0 SOLRAD 1 (GREB)

TLE line 1: 1 00046U 60007B 25346.24950159 .00001029 00000-0 21182-3 0 9997

TLE line 2: 2 00046 66.6893 17.7412 0188573 73.2059 288.9643 14.54470038429810

Live tracking on map

Real-time ground track for satellite SOLRAD 1 (GREB).

In-orbit conjunctions

A list of the most updated potential collisions computed for object SOLRAD 1 (GREB).

Target Orbit TCA Probability of collision Miss distance Type
CZ-6A DEB SSO 2025-11-20 22:53:58 0.0001160504 563.0 (m) DEBRIS
NOAA 16 DEB SSO 2025-03-30 07:52:51 0.0002692356 467.0 (m) DEBRIS
CZ-6A DEB SSO 2024-10-09 21:24:50 0.002818803 42.0 (m) DEBRIS
CZ-6A DEB SSO 2024-10-09 04:50:52 0.0002598775 118.0 (m) DEBRIS
FENGYUN 1C DEB SSO 2024-06-28 09:39:04 0.0001319983 409.0 (m) DEBRIS

Associated space launch

The Transit system was the first satellite navigation system to be used operationally. The system was primarily used by the U.S. Navy to provide accurate location information to its Polaris ballistic missile submarines, and it was also used as a navigation system by the Navy's surface ships, as well as for hydrographic survey and geodetic surveying.

SOLRAD 1 (GREB) was lifted into orbit during the mission ‘Thor DM-21 Ablestar | Transit 2A’, on board a Thor DM-21 Ablestar space rocket.

The launch took place on June 22, 1960, 5:54 a.m. from Space Launch Complex 17B.

For more information about the launch, click the button.

Launch to space Thor DM-21 Ablestar | Transit 2A
Thor DM-21 Ablestar | Transit 2A

Agency: N/A

Status: Launch Successful

Launch date: June 22, 1960, 5:54 a.m. UTC

Rocket: Thor DM-21 Ablestar

Launch pad: Space Launch Complex 17B

Location: Cape Canaveral SFS, FL, USA

...

Latest news about this satellite

There are no fresh news available about this satellite. Check back as we update our databases every day.


Newsletter sign-up

Weekly statistics, charts and insights to help you stay on top of the space industry.